W2EH Weather Reports


time (UTC)temp
F
wind
direction
speed
knots
gust
knots
rain 1hr
in
rain 24hr
in
rain mn
in
humidity
%
barometer
mb
20260506025009 78 144 1.7 2.6 0.00 0.00 0.00 81 1005.9
20260506024506 78 128 1.7 1.7 0.00 0.00 0.00 81 1006.0
20260506024002 78 121 1.7 1.7 0.00 0.00 0.00 81 1005.7
20260506023458 78 97 0.0 0.9 0.00 0.00 0.00 81 1005.7
20260506022955 78 109 0.9 1.7 0.00 0.00 0.00 80 1005.4
20260506022453 78 140 3.5 3.5 0.00 0.00 0.00 80 1005.4
20260506021951 78 134 1.7 2.6 0.00 0.00 0.00 81 1005.2
20260506021448 78 128 0.9 1.7 0.00 0.00 0.00 81 1005.3
20260506020945 78 139 1.7 1.7 0.00 0.00 0.00 81 1005.2
20260506020443 78 121 0.0 1.7 0.00 0.00 0.00 80 1005.2
20260506015940 78 129 0.9 1.7 0.00 0.00 0.00 80 1005.3
20260506015437 78 121 0.9 1.7 0.00 0.00 0.00 80 1005.3
20260506014934 78 136 1.7 1.7 0.00 0.00 0.00 80 1004.9
20260506014431 78 116 0.9 1.7 0.00 0.00 0.00 79 1004.9
20260506013927 78 142 0.9 2.6 0.00 0.00 0.00 79 1004.9
20260506013426 79 141 0.0 1.7 0.00 0.00 0.00 78 1004.9
20260506012921 79 108 0.9 1.7 0.00 0.00 0.00 78 1004.9
20260506012418 80 114 0.9 2.6 0.00 0.00 0.00 77 1004.8
20260506011915 80 124 0.9 1.7 0.00 0.00 0.00 76 1004.8
20260506011412 80 116 1.7 2.6 0.00 0.00 0.00 76 1004.5
20260506010909 80 131 0.0 3.5 0.00 0.00 0.00 75 1004.7
20260506010408 80 114 1.7 1.7 0.00 0.00 0.00 75 1004.8
20260506005904 81 126 1.7 1.7 0.00 0.00 0.00 74 1004.7
20260506005402 81 157 1.7 2.6 0.00 0.00 0.00 73 1004.7
20260506004856 81 130 0.0 2.6 0.00 0.00 0.00 73 1004.7
20260506004355 82 182 0.0 3.5 0.00 0.00 0.00 72 1004.6
20260506003851 82 146 1.7 2.6 0.00 0.00 0.00 73 1004.7
20260506003347 82 130 1.7 2.6 0.00 0.00 0.00 72 1004.5
20260506002843 82 145 1.7 1.7 0.00 0.00 0.00 72 1004.7
20260506002340 82 160 1.7 3.5 0.00 0.00 0.00 71 1004.7
20260506001835 82 144 0.9 2.6 0.00 0.00 0.00 71 1004.6
20260506001333 82 134 1.7 2.6 0.00 0.00 0.00 72 1004.6
20260506000830 82 142 1.7 2.6 0.00 0.00 0.00 71 1004.8
20260506000329 82 109 0.0 2.6 0.00 0.00 0.00 71 1004.8
20260505235824 82 139 1.7 2.6 0.00 0.00 0.00 71 1004.6
20260505235322 82 134 2.6 2.6 0.00 0.00 0.00 70 1004.8
20260505234818 82 146 3.5 3.5 0.00 0.00 0.00 70 1005.0
20260505234316 82 107 0.9 3.5 0.00 0.00 0.00 71 1004.8
20260505233813 82 188 0.9 3.5 0.00 0.00 0.00 70 1004.6
20260505233311 82 187 1.7 2.6 0.00 0.00 0.00 70 1004.6
20260505232808 82 165 2.6 2.6 0.00 0.00 0.00 69 1004.5
20260505232306 83 174 1.7 2.6 0.00 0.00 0.00 69 1004.6
20260505231802 83 148 2.6 3.5 0.00 0.00 0.00 69 1004.6
20260505231300 83 112 0.9 3.5 0.00 0.00 0.00 68 1004.4
20260505230758 83 132 1.7 3.5 0.00 0.00 0.00 68 1004.2
20260505230255 83 143 0.9 3.5 0.00 0.00 0.00 69 1004.2
20260505225751 83 142 1.7 3.5 0.00 0.00 0.00 68 1004.1
20260505225249 83 134 3.5 3.5 0.00 0.00 0.00 68 1004.2
20260505224743 83 160 0.9 2.6 0.00 0.00 0.00 68 1004.0
20260505224241 83 213 1.7 3.5 0.00 0.00 0.00 68 1004.1
20260505223739 83 149 1.7 2.6 0.00 0.00 0.00 68 1004.1
20260505223235 83 141 2.6 6.1 0.00 0.00 0.00 68 1004.3
20260505222731 83 134 0.0 5.2 0.00 0.00 0.00 66 1004.2
20260505222227 84 199 1.7 5.2 0.00 0.00 0.00 67 1004.2
20260505221725 84 151 1.7 5.2 0.00 0.00 0.00 68 1004.1
20260505221221 84 185 2.6 2.6 0.00 0.00 0.00 67 1004.0
20260505220718 84 180 0.9 5.2 0.00 0.00 0.00 67 1004.0
20260505220216 84 172 0.9 6.1 0.00 0.00 0.00 67 1004.0
20260505215714 84 149 2.6 4.3 0.00 0.00 0.00 66 1004.3
20260505215211 85 151 3.5 5.2 0.00 0.00 0.00 66 1004.4
20260505214709 85 140 1.7 6.1 0.00 0.00 0.00 66 1004.4
20260505214206 85 164 1.7 4.3 0.00 0.00 0.00 67 1004.5
20260505213703 85 140 2.6 4.3 0.00 0.00 0.00 66 1004.7
20260505213201 85 126 1.7 3.5 0.00 0.00 0.00 67 1004.3
20260505212656 85 125 2.6 4.3 0.00 0.00 0.00 65 1004.6
20260505212154 86 145 5.2 5.2 0.00 0.00 0.00 66 1004.8
20260505211650 85 170 1.7 3.5 0.00 0.00 0.00 65 1004.7
20260505211148 85 141 2.6 4.3 0.00 0.00 0.00 66 1004.8
20260505210644 85 208 1.7 9.6 0.00 0.00 0.00 68 1005.0
20260505210141 85 152 1.7 7.8 0.00 0.00 0.00 66 1005.1
20260505205638 84 139 2.6 5.2 0.00 0.00 0.00 68 1005.0
20260505205137 84 151 1.7 6.1 0.00 0.00 0.00 68 1005.1
20260505204633 84 150 1.7 4.3 0.00 0.00 0.00 68 1005.1
20260505204131 84 130 0.0 3.5 0.00 0.00 0.00 68 1004.8
20260505203627 84 141 3.5 4.3 0.00 0.00 0.00 67 1005.1
20260505203125 84 172 2.6 4.3 0.00 0.00 0.00 68 1005.1
20260505202620 84 162 3.5 5.2 0.00 0.00 0.00 67 1005.2
20260505202116 84 97 1.7 3.5 0.00 0.00 0.00 67 1005.4
20260505201613 84 167 2.6 6.1 0.00 0.00 0.00 67 1005.6
20260505201111 83 187 1.7 4.3 0.00 0.00 0.00 68 1005.5
20260505200609 83 169 2.6 4.3 0.00 0.00 0.00 70 1005.6
20260505200106 84 175 3.5 4.3 0.00 0.00 0.00 67 1005.5
20260505195601 84 205 4.3 7.8 0.00 0.00 0.00 67 1005.4
20260505195059 84 185 1.7 4.3 0.00 0.00 0.00 67 1005.4
20260505194556 84 145 5.2 6.1 0.00 0.00 0.00 67 1005.5
20260505194052 83 197 3.5 4.3 0.00 0.00 0.00 68 1005.7
20260505193549 83 172 1.7 5.2 0.00 0.00 0.00 67 1005.8
20260505193046 83 139 3.5 5.2 0.00 0.00 0.00 68 1006.0
20260505192545 83 150 4.3 4.3 0.00 0.00 0.00 69 1005.9
20260505192042 83 208 1.7 5.2 0.00 0.00 0.00 69 1005.8
20260505191540 83 176 1.7 3.5 0.00 0.00 0.00 69 1005.8
20260505191038 82 211 3.5 4.3 0.00 0.00 0.00 69 1005.9
20260505190532 82 205 1.7 7.0 0.00 0.00 0.00 70 1006.2
20260505190029 82 140 3.5 6.1 0.00 0.00 0.00 68 1006.2
20260505185525 82 136 1.7 4.3 0.00 0.00 0.00 71 1006.0
20260505185022 82 148 4.3 6.1 0.00 0.00 0.00 68 1006.2
20260505184519 81 125 1.7 6.1 0.00 0.00 0.00 72 1006.4
20260505184015 81 134 1.7 5.2 0.00 0.00 0.00 71 1006.5
20260505183512 81 157 3.5 7.0 0.00 0.00 0.00 70 1006.8
20260505183009 80 197 0.9 3.5 0.00 0.00 0.00 72 1006.9
20260505182506 80 204 3.5 7.0 0.00 0.00 0.00 70 1007.2
20260505182002 80 164 2.6 9.6 0.00 0.00 0.00 71 1006.9
20260505181459 79 136 3.5 4.3 0.00 0.00 0.00 75 1006.9
20260505180956 79 140 2.6 4.3 0.00 0.00 0.00 74 1007.1
20260505180452 78 136 3.5 4.3 0.00 0.00 0.00 75 1007.0
20260505175949 78 137 3.5 6.1 0.00 0.00 0.00 76 1007.0
20260505175445 77 149 4.3 8.7 0.00 0.00 0.00 77 1007.3
20260505174942 77 219 1.7 2.6 0.00 0.00 0.00 78 1007.4
20260505174439 77 196 0.0 3.5 0.00 0.00 0.00 77 1007.5
20260505173935 77 188 0.9 4.3 0.00 0.00 0.00 77 1007.3
20260505173432 77 213 2.6 6.1 0.00 0.00 0.00 77 1007.4
20260505172929 77 208 1.7 6.1 0.00 0.00 0.00 78 1007.4
20260505172428 77 127 2.6 4.3 0.00 0.00 0.00 79 1007.3
20260505171926 76 216 4.3 6.1 0.00 0.00 0.00 80 1007.4
20260505171424 76 141 2.6 3.5 0.00 0.00 0.00 80 1007.3
20260505170920 75 227 1.7 3.5 0.00 0.00 0.00 81 1007.2
20260505170417 75 163 2.6 5.2 0.00 0.00 0.00 80 1007.6
20260505165912 75 162 2.6 4.3 0.00 0.00 0.00 81 1007.5
20260505165409 75 171 1.7 3.5 0.00 0.00 0.00 82 1007.4
20260505164904 75 190 2.6 4.3 0.00 0.00 0.00 82 1007.4
20260505164401 74 155 2.6 7.8 0.00 0.00 0.00 82 1007.6
20260505163859 75 199 3.5 5.2 0.00 0.00 0.00 82 1007.5
20260505163358 74 152 1.7 4.3 0.00 0.00 0.00 83 1007.5
20260505162856 74 189 3.5 7.0 0.00 0.00 0.00 83 1007.5
20260505162351 74 180 2.6 3.5 0.00 0.00 0.00 83 1007.7
20260505161849 74 174 2.6 4.3 0.00 0.00 0.00 84 1007.5
20260505161346 74 146 2.6 3.5 0.00 0.00 0.00 84 1007.6
20260505160843 73 153 2.6 5.2 0.00 0.00 0.00 84 1007.6
20260505160341 73 187 2.6 5.2 0.00 0.00 0.00 85 1007.3
20260505153319 73 135 4.3 6.1 0.00 0.00 0.00 85 1007.5
20260505152816 73 181 2.6 4.3 0.00 0.00 0.00 86 1007.4
20260505152314 73 168 1.7 4.3 0.00 0.00 0.00 85 1007.4
20260505151814 73 157 3.5 6.1 0.00 0.00 0.00 86 1007.6
20260505151311 73 189 2.6 5.2 0.00 0.00 0.00 86 1007.7
20260505150808 72 187 0.9 4.3 0.00 0.00 0.00 86 1007.5
20260505150305 72 155 1.7 2.6 0.00 0.00 0.00 87 1007.2
20260505140235 71 142 4.3 4.3 0.00 0.00 0.00 87 1007.1
20260505130159 71 121 2.6 7.8 0.00 0.00 0.00 87 1006.5
20260505124649 71 209 3.5 5.2 0.00 0.00 0.00 87 1006.3
20260505124145 71 154 2.6 5.2 0.00 0.00 0.00 87 1006.1
20260505123641 71 139 3.5 5.2 0.00 0.00 0.00 87 1006.0
20260505123138 70 142 1.7 5.2 0.00 0.00 0.00 87 1006.2
20260505122634 70 161 3.5 5.2 0.00 0.00 0.00 87 1006.0
20260505122132 70 130 1.7 4.3 0.00 0.00 0.00 87 1006.1
20260505121628 70 173 1.7 5.2 0.00 0.00 0.00 88 1005.6
20260505121125 70 132 3.5 5.2 0.00 0.00 0.00 88 1005.8
20260505120622 70 161 2.6 4.3 0.00 0.00 0.00 88 1005.7
20260505120118 70 144 4.3 5.2 0.00 0.00 0.00 88 1005.8
20260505115618 70 198 1.7 3.5 0.00 0.00 0.00 88 1005.3
20260505115115 70 187 1.7 3.5 0.00 0.00 0.00 88 1005.2
20260505114612 70 178 1.7 6.1 0.00 0.00 0.00 88 1005.4
20260505114109 70 152 1.7 8.7 0.00 0.00 0.00 87 1005.6
20260505113605 70 148 1.7 5.2 0.00 0.00 0.00 87 1005.4
20260505113102 70 143 1.7 7.8 0.00 0.00 0.00 87 1005.6
20260505112558 70 130 3.5 4.3 0.00 0.00 0.00 87 1005.7
20260505112056 70 158 4.3 7.0 0.00 0.00 0.00 87 1005.6
20260505111550 71 150 3.5 5.2 0.00 0.00 0.00 87 1005.4
20260505111046 71 141 5.2 7.0 0.00 0.00 0.00 87 1005.6
20260505110543 71 147 1.7 5.2 0.00 0.00 0.00 86 1005.5
20260505102015 71 151 1.7 4.3 0.00 0.00 0.00 85 1005.8
20260505101514 71 155 1.7 4.3 0.00 0.00 0.00 85 1005.9
20260505101010 71 149 4.3 7.0 0.00 0.00 0.00 85 1005.7
20260505100507 71 182 1.7 4.3 0.00 0.00 0.00 85 1005.9
20260505100003 71 161 3.5 4.3 0.00 0.00 0.00 85 1006.2
20260505095459 71 185 2.6 3.5 0.00 0.00 0.00 85 1006.2
20260505094956 71 103 2.6 4.3 0.00 0.00 0.00 85 1006.0
20260505094453 71 130 3.5 5.2 0.00 0.00 0.00 85 1005.9
20260505093949 71 165 3.5 5.2 0.00 0.00 0.00 85 1005.9
20260505093446 71 160 2.6 8.7 0.00 0.00 0.00 86 1006.2
20260505092943 71 159 3.5 5.2 0.00 0.00 0.00 86 1005.9
20260505092441 71 195 3.5 5.2 0.00 0.00 0.00 86 1005.8
20260505091938 71 164 3.5 4.3 0.00 0.00 0.00 86 1006.0
20260505091435 71 134 2.6 5.2 0.00 0.00 0.00 86 1006.3
20260505090933 71 123 3.5 4.3 0.00 0.00 0.00 86 1006.4
20260505090431 71 160 3.5 7.0 0.00 0.00 0.00 86 1006.3
20260505085928 71 143 4.3 6.1 0.00 0.00 0.00 85 1006.4
20260505085426 71 121 3.5 4.3 0.00 0.00 0.00 85 1006.2
20260505084924 71 137 4.3 5.2 0.00 0.00 0.00 85 1006.2
20260505084422 71 147 3.5 6.1 0.00 0.00 0.00 85 1006.2
20260505083920 71 144 3.5 4.3 0.00 0.00 0.00 85 1006.2
20260505083417 71 145 3.5 7.8 0.00 0.00 0.00 85 1006.3
20260505082913 71 184 2.6 4.3 0.00 0.00 0.00 85 1006.4
20260505082409 71 140 4.3 5.2 0.00 0.00 0.00 85 1006.5
20260505081906 71 175 3.5 6.1 0.00 0.00 0.00 85 1006.4
20260505081403 71 136 2.6 4.3 0.00 0.00 0.00 84 1006.9
20260505080859 71 162 2.6 5.2 0.00 0.00 0.00 84 1006.6
20260505080355 71 158 2.6 10.4 0.00 0.00 0.00 84 1006.9
20260505075851 71 131 1.7 7.0 0.00 0.00 0.00 85 1006.9
20260505075348 71 159 3.5 7.0 0.00 0.00 0.00 84 1006.6
20260505074845 71 158 1.7 5.2 0.00 0.00 0.00 84 1006.5
20260505074342 71 145 6.1 7.0 0.00 0.00 0.00 84 1006.9
20260505073840 71 194 2.6 8.7 0.00 0.00 0.00 84 1006.9
20260505073338 71 147 3.5 4.3 0.00 0.00 0.00 84 1007.0
20260505072834 71 148 3.5 5.2 0.00 0.00 0.00 84 1006.9
20260505072330 71 139 2.6 5.2 0.00 0.00 0.00 84 1007.2
20260505071826 71 135 3.5 5.2 0.00 0.00 0.00 84 1007.0
20260505071323 71 183 3.5 6.1 0.00 0.00 0.00 84 1007.2
20260505070821 71 153 2.6 5.2 0.00 0.00 0.00 84 1007.3
20260505070318 71 177 0.9 2.6 0.00 0.00 0.00 84 1007.5
20260505065813 71 134 1.7 8.7 0.00 0.00 0.00 84 1007.4
20260505065310 71 185 2.6 5.2 0.00 0.00 0.00 83 1007.5
20260505064807 71 170 2.6 5.2 0.00 0.00 0.00 83 1007.7
20260505064304 71 121 3.5 7.8 0.00 0.00 0.00 83 1007.6
20260505063802 71 141 3.5 8.7 0.00 0.00 0.00 83 1007.4
20260505063258 71 143 2.6 4.3 0.00 0.00 0.00 83 1007.6
20260505062754 71 148 2.6 6.1 0.00 0.00 0.00 83 1007.6
20260505062252 71 162 1.7 3.5 0.00 0.00 0.00 83 1007.5
20260505061749 71 160 2.6 7.0 0.00 0.00 0.00 82 1007.6
20260505061247 72 156 1.7 3.5 0.00 0.00 0.00 82 1007.8
20260505060744 72 144 3.5 4.3 0.00 0.00 0.00 82 1007.8
20260505060241 72 143 1.7 5.2 0.00 0.00 0.00 82 1007.8
20260505055736 72 108 3.5 4.3 0.00 0.00 0.00 82 1007.7
20260505055232 72 126 0.0 3.5 0.00 0.00 0.00 82 1007.8
20260505054730 72 169 2.6 3.5 0.00 0.00 0.00 82 1008.0
20260505054228 72 140 1.7 3.5 0.00 0.00 0.00 82 1007.8
20260505053726 72 139 3.5 4.3 0.00 0.00 0.00 82 1007.7
20260505053222 72 130 1.7 5.2 0.00 0.00 0.00 82 1007.5
20260505052719 72 164 1.7 7.0 0.00 0.00 0.00 82 1007.7
20260505052216 72 151 1.7 3.5 0.00 0.00 0.00 82 1007.7
20260505051713 72 130 2.6 4.3 0.00 0.00 0.00 82 1007.9
20260505051211 72 158 1.7 2.6 0.00 0.00 0.00 82 1007.6
20260505050709 72 155 1.7 4.3 0.00 0.00 0.00 81 1007.6
20260505050208 72 161 3.5 6.1 0.00 0.00 0.00 81 1007.7
20260505041642 73 140 2.6 4.3 0.00 0.00 0.00 79 1007.7
20260505041140 73 109 0.0 4.3 0.00 0.00 0.00 79 1007.7
20260505040636 73 180 4.3 4.3 0.00 0.00 0.00 78 1007.8
20260505040134 73 146 2.6 7.8 0.00 0.00 0.00 78 1007.9
20260505035630 73 154 0.9 3.5 0.00 0.00 0.00 78 1007.6
20260505035126 74 144 4.3 4.3 0.00 0.00 0.00 78 1007.7
20260505034623 74 164 1.7 6.1 0.00 0.00 0.00 77 1007.6
20260505034120 74 143 3.5 4.3 0.00 0.00 0.00 77 1007.7
20260505033617 74 149 7.8 8.7 0.00 0.00 0.00 77 1007.9
20260505033115 74 167 3.5 4.3 0.00 0.00 0.00 76 1007.7
20260505032613 74 149 1.7 3.5 0.00 0.00 0.00 76 1007.4
20260505032109 74 144 4.3 5.2 0.00 0.00 0.00 76 1007.5
20260505031606 75 140 2.6 4.3 0.00 0.00 0.00 75 1007.4
20260505031102 75 134 1.7 3.5 0.00 0.00 0.00 75 1007.5
20260505030600 75 141 3.5 4.3 0.00 0.00 0.00 75 1007.4
20260505030055 75 174 2.6 3.5 0.00 0.00 0.00 74 1007.4
20260505025551 75 190 0.9 5.2 0.00 0.00 0.00 74 1007.7